IRNSS-1C (40269 NORAD) Tracking and Keplerian Element Data

This shows tracking and keplerian element data for the satellite.

Feedback or suggestion? Click here.




ElementValue
Catalog40269
NameIRNSS-1C
Epoch Orbit3769
Epoch Day34.70008116
Epoch Year2025
RAAN99.2746
Inclination5.2484
Eccentricity0.0018359
Argument of Perigee0.8452
Mean Anonmoly9.0147
Mean Motion1.00271062
Decay Rate-1.6E-06
L11 40269U 14061A 25034.70008116 -.00000160 00000+0 00000+0 0 9996
L22 40269 5.2484 99.2746 0018359 0.8452 9.0147 1.00271062 37693



Live tracking and technical data element details for IRNSS-1C (NORAD 40269). IRNSS-1C can be tracked NOW for your location showing map with azimuth and elevation plus other details from your city location.







IsCatalogInMostPopularTable: catalog: 40269, numindb: 601
Update: records affected: 1



GetName: 40269 IRNSS-1C

Hit Count: updated at: Thu, 15 May 2025 08:38:24 GMT